Regional Weather Roundup
Issued by NWS

Home | Current Version | Previous Version | Graphics & Text | Print | Product List | Glossary On
Versions: 1 2 3 4 5 6 7 8 9 10 11 12 13 14 15 16 17 18 19 20 21 22 23 24 25 26 27 28 29 30 31 32 33 34 35 36 37 38 39 40 41 42 43 44 45 46 47 48 49 50
826
ASUS43 KLSX 162007
RWRMO

WEATHER SUMMARY FOR MISSOURI
NATIONAL WEATHER SERVICE SPRINGFIELD MO
200 PM CST SAT DEC 16 2017

NOTE: "FAIR" INDICATES FEW OR NO CLOUDS BELOW 12,000 FEET WITH NO
       SIGNIFICANT WEATHER AND/OR OBSTRUCTIONS TO VISIBILITY.
       CURRENT SKY AND/OR WEATHER CONDITIONS ARE NOT AVAILABLE FOR
       CHILLICOTHE AND FARMINGTON.

MOZ001>031-035>038-043-044-053-054-162100-
...NORTHERN AND WESTERN MISSOURI...

CITY           SKY/WX    TMP DP  RH WIND       PRES   REMARKS
KANSAS CTY INT MOSUNNY   56  28  34 SW12      29.86F
KANSAS C DTWN  SUNNY     61  28  28 S14       29.86F
LEE`S SUMMIT   SUNNY     60  27  28 SW18G30   29.87F
ST JOSEPH      SUNNY     56  29  35 SW10      29.85F
CHILLICOTHE      N/A     55  27  34 S10       29.88S
KIRKSVILLE     SUNNY     55  31  39 SW16      29.87S

$$
MOZ066>068-077>081-088>096-101>105-162100-
...SOUTHWEST MISSOURI...

CITY           SKY/WX    TMP DP  RH WIND       PRES   REMARKS
SPRINGFIELD    CLOUDY    57  24  28 SW18G29   29.98F
JOPLIN         SUNNY     57  27  31 S21G26    29.95F
BRANSON        MOSUNNY   57  19  23 SW13G21   30.02F

$$
MOZ032>034-039>042-045>050-055>058-069>072-162100-
...CENTRAL MISSOURI...

CITY           SKY/WX    TMP DP  RH WIND       PRES   REMARKS
COLUMBIA       SUNNY     61  27  27 SW17      29.92F
JEFFERSON CITY SUNNY     62  26  25 SW13G24   29.93F
ROLLA          SUNNY     61  26  26 SW15G28   29.96F
WHITEMAN AFB   SUNNY     61  26  26 SW22      29.85F
WARRENSBURG    SUNNY     59  27  29 S16G24    29.89F
OSAGE BEACH    SUNNY     61  26  26 SW17G23   29.95F

$$
MOZ051-052-059>065-162100-
...EAST CENTRAL MISSOURI...

CITY           SKY/WX    TMP DP  RH WIND       PRES   REMARKS
ST LOUIS INTL  MOSUNNY   60  27  28 SW17      29.95F
SPIRIT OF STL  SUNNY     62  26  25 SW15G25   29.93F
ST CHARLES     SUNNY     61  26  26 SW15G24   29.93F

$$
MOZ072>076-082>087-097>100-106>115-162100-
...SOUTH CENTRAL AND SOUTHEAST MISSOURI...

CITY           SKY/WX    TMP DP  RH WIND       PRES   REMARKS
CAPE GIRARDEAU SUNNY     52  30  43 S17G23    30.07F
FARMINGTON     SUNNY     57  29  34 S12       30.00F
POPLAR BLUFF   SUNNY     53  31  42 SW17G24   30.08F
WEST PLAINS    SUNNY     57  24  28 SW15      30.03F

$$



USA.gov is the U.S. government's official web portal to all federal, state and local government web resources and services.